Location: Brede
(50.9167°N, 0.6000°E)
Time: 18:39:41
(UTC+00:00)

CZ-4C R/B - Pass Details

Date: 08 August 2020
Orbit: 409 x 491 km, 97.7° (Epoch: 23 September)

Event Time Altitude Azimuth Distance (km) Brightness Sun altitude
Rises 03:19:52 0° 164° (SSE) 2,360 6.3 -10.5°
Reaches altitude 10° 03:21:50 10° 164° (SSE) 1,511 5.3 -10.3°
Maximum altitude 03:25:04 86° 74° (ENE) 440 2.8 -9.9°
Drops below altitude 10° 03:28:25 10° 347° (NNW) 1,567 6.0 -9.5°
Sets 03:30:29 0° 347° (NNW) 2,458 7.0 -9.2°
